Lapse_Rate
5.8 5.7 5.5 5.6 5.6 5.5 5.5 5.6 5.5 5.6 5.8 6.0 6.1 6.0 5.8 5.8 5.7 5.6 5.5 5.5 5.4 5.4 5.5 5.4 5.5 5.5 5.3 5.3 5.4 5.4 5.5 5.6 5.8 5.9 5.7 5.7 5.5 5.5 5.5 5.6 5.5 5.7 5.5
5.9 5.8 5.7 5.7 5.8 5.7 5.5 5.5 5.6 5.6 5.6 5.5 5.7 5.9 5.8 5.8 5.8 5.8 5.8 5.7 5.6 5.5 5.1 5.5 5.6 5.4 5.5 5.2 5.2 5.2 5.5 5.4 5.6 5.6 5.4 5.3 5.7 5.6 5.5 5.4 5.5 5.3 5.4
5.9 5.8 5.8 5.8 5.8 5.7 5.7 5.6 5.5 5.5 5.4 5.5 5.5 5.3 5.5 5.8 5.6 5.6 5.6 6.0 5.8 5.6 5.6 5.7 5.6 5.4 5.5 5.5 5.5 5.4 5.5 5.6 5.5 5.5 5.5 5.4 5.8 5.5 5.9 5.2 5.3 5.4 5.1
6.1 6.0 5.8 5.8 5.8 5.8 5.8 5.7 5.6 5.5 5.4 5.3 5.2 5.3 5.3 5.4 5.6 5.5 5.5 5.4 5.1 5.0 5.2 5.5 5.9 5.5 5.4 5.4 5.4 5.4 5.4 5.6 5.7 5.7 5.6 5.6 5.1 5.7 5.7 5.6 5.3 5.2 5.2
6.1 6.0 5.9 5.9 5.9 5.9 5.9 5.8 5.7 5.6 5.5 5.4 5.4 5.4 5.5 5.5 5.8 5.8 5.7 5.8 5.6 5.7 5.8 5.6 5.4 5.5 5.5 5.3 5.3 5.5 5.5 5.5 5.5 5.7 5.9 5.7 5.6 5.4 5.0 5.5 5.4 5.2 5.1
6.2 6.2 6.1 6.1 5.9 5.9 5.9 5.8 5.8 5.8 5.7 5.6 5.6 5.6 5.7 5.7 5.6 5.7 5.6 5.4 5.5 5.4 5.0 4.9 4.9 4.7 5.2 5.2 5.4 5.7 5.2 5.1 5.2 5.4 5.8 6.0 5.9 5.6 5.5 5.2 5.3 5.6 5.6
6.4 6.4 6.2 6.2 6.2 6.1 6.0 6.0 6.0 6.0 5.9 5.7 5.7 5.8 5.8 5.9 5.7 5.5 5.5 5.4 5.1 5.3 5.3 5.3 5.3 5.2 5.0 4.8 4.6 4.5 4.4 4.5 4.5 4.9 5.2 5.5 5.8 5.7 5.4 5.7 5.0 5.1 5.4
6.3 6.4 6.4 6.3 6.3 6.2 6.1 6.0 5.9 5.9 5.9 5.8 5.8 5.9 5.9 5.9 5.7 5.5 5.3 5.5 5.3 5.1 5.2 5.3 5.3 5.4 5.4 5.1 5.0 4.9 4.9 4.8 4.8 4.5 4.4 4.3 4.3 4.4 4.9 4.7 4.8 4.6 4.8
6.3 6.3 6.1 6.1 6.1 6.0 5.9 5.8 5.7 5.6 5.7 6.0 6.0 6.0 5.8 5.6 5.5 5.3 5.1 5.3 5.2 5.2 5.0 5.1 5.2 5.1 5.0 5.1 5.0 5.0 5.0 5.1 5.0 5.0 4.9 4.9 4.8 4.6 4.5 4.4 4.6 4.6 4.9
6.1 6.0 6.0 6.0 6.0 5.9 5.9 5.8 5.8 5.9 5.9 5.9 5.7 5.8 5.8 5.5 5.4 5.1 5.1 5.1 5.3 5.2 5.2 4.9 4.9 5.0 4.9 4.8 4.8 4.9 4.9 5.0 4.9 4.8 4.7 4.7 4.8 4.7 4.7 4.7 4.7 4.8 4.9
6.1 6.1 6.0 5.8 5.8 5.8 5.7 5.7 5.9 6.0 5.9 6.0 6.0 6.0 5.6 5.4 5.4 5.5 5.3 5.4 5.4 5.4 5.2 5.1 5.1 5.0 5.0 5.0 5.0 5.0 4.8 4.6 4.6 4.7 4.9 4.8 4.8 4.8 4.8 4.8 4.7 4.9 4.6
5.9 5.8 5.7 5.7 5.6 5.5 5.6 5.9 5.8 5.8 5.7 6.0 5.9 5.6 5.6 5.6 5.6 5.5 5.6 5.7 5.6 5.5 5.3 5.2 5.2 5.2 5.2 5.2 5.2 5.0 4.8 4.7 4.6 4.6 4.6 4.6 4.7 4.8 4.7 4.5 4.5 4.5 4.5
5.5 5.5 5.8 5.9 5.7 5.7 5.4 5.8 5.8 5.6 6.1 6.2 6.1 5.8 5.6 5.7 5.6 5.7 5.8 5.8 5.6 5.5 5.3 5.2 5.2 5.3 5.3 5.4 5.3 5.2 4.9 4.8 4.9 4.9 4.8 4.7 4.6 4.5 4.4 4.4 4.5 4.7 4.7
5.5 5.6 5.6 5.8 6.0 5.9 5.8 5.7 5.3 5.6 5.8 5.7 5.5 5.4 5.4 5.7 5.7 5.7 5.8 5.5 5.4 5.4 5.2 5.2 5.3 5.4 5.4 5.4 5.3 5.2 4.9 4.7 4.9 5.0 5.0 4.9 4.7 4.6 4.5 4.2 4.1 4.1 4.4
4.9 4.9 5.6 5.9 6.0 5.9 5.9 5.7 5.6 5.5 5.5 5.1 5.2 5.3 5.6 5.7 5.8 5.5 5.6 5.5 5.4 5.5 5.3 5.2 5.1 5.3 5.3 5.3 5.3 5.1 4.6 4.7 4.8 4.8 4.7 4.7 4.7 4.5 4.3 4.4 4.4 4.1 3.9
5.2 5.5 5.9 5.9 5.7 5.5 5.6 5.6 5.3 5.0 4.9 5.0 5.4 5.6 5.5 5.5 5.4 5.2 5.2 5.3 5.2 5.3 5.3 5.3 5.2 5.1 5.2 5.2 5.0 5.0 5.0 4.9 4.8 4.7 4.6 4.5 4.3 4.2 4.1 4.0 4.1 4.1 3.9
5.3 5.5 5.5 5.6 5.5 5.6 5.8 5.8 5.4 5.1 5.1 5.4 5.6 5.6 5.6 5.4 5.2 5.0 5.1 5.2 5.1 5.0 5.2 5.2 5.3 5.3 5.3 5.1 4.6 4.6 4.8 4.7 4.5 4.5 4.3 4.2 4.1 3.9 3.8 3.8 3.7 3.7 3.5
4.8 5.3 5.5 5.5 5.4 5.7 5.7 5.5 5.2 5.2 5.2 5.4 5.6 5.7 5.6 5.6 5.4 5.4 5.5 5.5 5.4 5.4 5.5 5.6 5.6 5.4 5.1 4.9 4.8 4.8 4.8 4.8 4.5 4.3 4.3 4.2 4.0 3.8 3.6 3.5 3.5 3.5 3.4
5.4 5.3 5.3 5.5 5.5 5.7 5.5 5.4 5.2 5.0 5.3 5.5 5.5 5.5 5.5 5.6 5.8 5.7 5.6 5.6 5.6 5.6 5.5 5.4 5.0 5.0 4.9 4.8 4.8 4.8 4.8 4.7 4.7 4.6 4.4 4.2 4.0 3.9 3.7 3.7 3.7 3.6 3.4
5.1 5.2 5.3 5.5 5.5 5.5 5.2 4.8 4.7 5.0 5.3 5.3 5.3 5.3 5.3 5.4 5.4 5.3 5.2 5.3 5.3 5.2 4.9 4.6 4.8 4.9 4.9 4.7 4.6 4.4 4.3 4.3 4.2 4.2 4.1 4.0 3.9 3.8 3.7 3.6 3.6 3.7 3.7
5.4 5.4 5.5 5.4 5.5 5.0 4.7 4.7 4.9 5.1 5.2 5.1 5.1 5.1 5.1 5.1 5.1 5.1 5.2 5.1 4.7 4.6 4.8 4.8 4.8 4.7 4.7 4.5 4.4 4.3 4.3 4.2 4.2 4.1 4.0 3.7 3.5 3.4 3.4 3.3 3.3 3.2 3.1
5.3 5.5 5.6 5.5 5.0 4.7 4.7 4.9 5.0 5.0 4.9 4.8 5.0 5.0 5.0 5.0 4.9 4.8 4.7 4.8 4.8 4.7 4.7 4.6 4.5 4.5 4.4 4.4 4.2 4.2 4.1 4.1 4.0 3.8 3.5 3.4 3.4 3.2 3.1 3.0 2.8 2.6 2.6
5.6 5.7 5.6 5.1 4.8 4.8 4.9 4.9 4.9 4.9 4.8 4.8 4.9 4.9 4.7 4.8 4.8 4.8 4.8 4.7 4.6 4.5 4.5 4.4 4.3 4.3 4.4 4.4 4.5 4.4 4.4 4.2 4.1 4.1 4.1 4.1 4.0 3.7 3.6 3.3 3.1 2.7 2.5
5.7 5.6 5.0 4.8 4.8 4.8 4.8 4.8 4.8 4.7 4.7 4.7 4.5 4.7 4.7 4.7 4.5 4.5 4.5 4.4 4.4 4.5 4.6 4.7 4.7 4.6 4.5 4.5 4.5 4.7 4.7 4.6 4.6 4.5 4.5 4.5 4.4 4.3 4.2 4.0 3.8 3.5 3.3
5.7 5.2 4.9 4.9 4.7 4.6 4.7 4.6 4.7 4.6 4.6 4.7 4.6 4.5 4.5 4.5 4.4 4.4 4.4 4.4 4.5 4.6 4.8 4.9 5.1 5.1 5.1 5.1 5.1 5.1 5.1 5.1 5.0 5.1 5.1 4.8 4.7 4.6 4.4 4.3 4.1 3.8 3.6
5.2 5.0 4.8 4.6 4.5 4.5 4.5 4.5 4.5 4.5 4.6 4.5 4.6 4.5 4.5 4.5 4.5 4.4 4.5 4.7 4.8 5.0 5.2 5.4 5.5 5.6 5.6 5.6 5.6 5.5 5.4 5.3 5.0 5.1 4.9 4.9 4.7 4.5 4.4 4.2 4.2 4.1 4.0
Wind_Speed
5 5 2 2 5 6 7 8 10 11 8 5 5 3 5 7 7 12 17 17 16 16 16 8 8 10 7 7 8 6 6 5 5 7 8 8 8 10 10 8 8 10 14
6 6 3 1 3 5 6 7 8 9 7 6 4 2 3 3 6 11 14 18 19 19 13 10 7 8 6 9 8 7 4 3 5 3 3 3 6 9 10 8 11 12 11
8 6 4 2 2 3 5 5 6 6 7 7 4 3 3 3 5 7 8 14 19 19 18 16 11 7 6 6 7 7 7 3 3 8 4 3 4 1 4 12 10 11 9
5 4 5 3 2 1 2 5 5 6 6 7 5 7 4 3 3 4 5 8 18 18 18 18 16 11 6 7 6 7 5 4 4 4 6 5 3 2 3 3 5 9 11
7 6 6 5 2 3 3 3 5 6 5 6 5 4 5 3 3 4 7 8 11 16 16 16 15 11 8 8 8 7 8 6 4 4 4 4 6 2 2 5 2 4 6
7 6 6 5 4 3 3 3 5 5 6 6 6 6 6 5 5 5 5 5 4 7 14 15 12 12 10 9 7 8 9 7 6 5 6 6 3 4 3 3 3 5 3
7 7 8 7 6 6 5 4 4 4 4 6 6 5 6 6 6 3 3 5 5 4 7 10 9 7 12 12 10 8 8 8 6 7 5 5 6 5 4 3 4 3 2
7 8 9 8 7 6 4 3 3 4 4 5 5 5 5 3 3 4 3 3 3 2 9 9 10 11 11 11 10 5 6 7 6 9 7 5 5 5 5 4 4 3 1
7 8 7 7 6 6 6 5 4 4 4 4 4 5 5 5 5 5 4 3 4 5 9 10 8 10 11 11 8 5 7 6 6 7 7 6 5 5 5 5 5 4 4
6 6 7 7 6 6 6 7 6 6 4 4 3 4 4 4 5 4 6 6 5 7 7 7 7 7 9 10 7 5 6 6 6 5 7 6 5 5 4 4 5 4 3
6 6 7 7 8 6 6 6 6 6 6 5 4 5 4 5 5 5 6 5 5 7 6 6 6 6 7 7 7 7 7 7 5 5 5 6 5 5 5 5 4 5 4
7 7 5 4 6 7 6 5 4 5 5 5 5 5 4 3 4 6 5 6 5 7 6 6 6 6 6 5 6 7 7 7 7 7 5 5 6 6 4 4 5 4 4
9 9 6 3 6 6 6 6 6 6 6 5 5 4 3 4 4 2 4 5 7 6 7 6 6 7 6 6 3 3 5 6 7 7 7 6 5 5 4 4 4 3 4
7 6 5 2 5 6 6 5 5 5 5 4 5 5 4 3 3 5 5 5 6 5 5 5 5 6 5 6 5 2 3 4 5 6 6 6 7 5 5 4 4 4 4
6 7 8 3 5 6 6 5 4 3 4 4 5 4 2 2 3 4 6 5 3 4 4 4 5 5 5 5 6 2 3 4 4 4 5 6 8 9 9 4 4 4 2
7 8 8 1 5 6 6 6 5 4 3 2 2 2 2 1 2 2 3 4 4 4 3 4 4 6 5 10 11 6 3 4 4 5 5 6 7 8 10 11 11 9 4
5 6 6 4 4 5 5 5 4 3 3 2 3 2 2 2 2 3 3 4 3 3 4 4 3 5 5 11 11 10 1 2 4 4 4 5 6 8 6 9 9 9 10
3 3 3 4 5 4 5 4 3 2 2 2 2 2 2 3 3 4 3 2 2 3 3 3 4 4 5 11 11 10 3 3 4 4 4 4 5 6 7 4 3 3 3
2 2 3 3 4 4 3 3 3 2 2 3 2 2 2 3 4 4 2 2 3 3 3 3 3 4 4 10 10 6 3 3 4 4 4 5 5 11 14 5 5 6 6
2 2 3 2 4 3 2 3 3 3 3 2 2 3 4 4 4 1 2 2 1 3 3 5 3 7 4 9 10 7 2 3 4 2 3 8 9 14 14 6 2 5 5
1 2 4 3 2 2 2 3 3 3 2 1 3 4 3 4 3 2 1 2 2 2 3 4 4 5 5 6 10 10 2 3 4 3 3 3 13 15 15 15 3 5 7
2 3 3 2 1 2 3 2 0 1 3 2 3 3 3 4 3 2 2 2 2 3 4 4 4 4 4 9 10 11 9 9 3 4 4 5 15 16 14 9 15 16 7
2 1 2 1 1 0 1 2 1 0 2 3 3 3 4 3 3 3 2 2 2 2 4 3 3 4 5 5 14 13 12 13 7 5 10 17 16 13 9 11 12 12 5
2 1 1 1 3 2 2 2 3 1 3 3 3 4 3 3 3 2 2 2 2 2 3 3 4 4 4 5 6 6 6 12 9 12 9 9 6 7 7 8 7 5 5
0 1 2 4 3 2 4 4 3 2 3 4 4 2 3 3 3 3 2 3 4 4 5 4 4 4 4 6 12 10 6 5 8 6 3 1 3 3 4 4 5 5 5
2 2 3 4 5 5 5 4 3 3 3 4 3 2 2 2 2 2 4 8 9 10 12 13 10 6 13 15 15 16 16 16 12 3 0 1 2 4 5 5 5 5 7
Wind_Direction
212 204 218 352 358 359 3 3 2 359 7 353 356 8 31 24 28 29 23 15 16 24 32 19 21 12 22 11 357 337 336 318 268 263 247 238 229 233 236 237 234 230 227
217 222 201 60 26 1 357 5 8 4 7 5 345 9 6 27 35 24 25 19 17 22 26 23 33 26 20 12 8 9 339 309 343 303 257 269 229 230 227 223 230 221 225
218 215 205 186 89 35 15 21 7 6 13 1 8 13 14 20 13 18 17 15 19 16 17 19 23 25 27 18 6 10 17 329 311 348 310 263 236 269 212 230 223 214 213
227 200 193 199 143 130 60 43 28 19 25 11 33 52 57 38 2 4 8 17 20 20 15 16 18 12 7 22 14 21 17 352 11 319 351 318 308 299 272 215 219 232 227
214 213 206 200 158 146 106 71 59 40 27 34 46 62 63 33 11 18 29 21 21 20 19 19 13 7 1 9 12 23 25 29 26 20 342 344 322 326 289 291 274 209 225
213 210 202 181 184 173 132 107 77 56 40 39 42 61 68 59 48 23 26 20 12 18 17 19 20 10 7 10 2 11 24 27 33 32 36 34 12 356 343 323 335 276 253
199 203 199 201 199 195 175 147 119 85 65 58 45 44 63 60 59 29 19 17 11 13 6 7 12 14 8 5 10 16 20 18 29 29 39 40 34 7 335 332 314 317 355
202 207 205 203 201 188 172 139 121 100 75 69 59 50 47 54 50 42 36 29 16 358 5 6 9 10 10 11 9 9 19 17 24 24 21 38 30 18 20 16 332 332 300
227 226 212 204 192 180 176 163 138 118 106 92 81 63 51 45 41 34 41 34 13 23 15 10 3 9 11 11 9 15 12 10 14 19 21 19 24 16 20 16 24 3 342
266 239 222 202 183 170 167 165 162 158 141 124 103 85 76 49 31 17 31 23 17 12 12 12 9 7 16 15 12 10 7 17 10 22 19 18 12 16 17 21 21 35 353
326 280 235 194 174 165 170 171 153 143 134 126 120 106 70 50 40 36 25 16 11 10 16 13 10 9 8 12 20 18 18 13 4 6 17 17 16 8 3 14 30 24 10
339 336 315 181 155 168 159 142 140 144 139 116 90 66 68 94 72 33 2 355 4 10 4 11 13 7 354 355 13 21 13 11 10 2 4 13 14 3 4 6 17 24 16
352 344 358 202 172 153 153 162 160 147 127 116 105 76 45 29 57 48 306 15 12 2 358 8 12 1 348 342 344 23 23 9 2 355 354 353 353 353 4 6 357 357 8
349 333 334 201 161 150 156 154 149 141 143 134 123 110 74 31 322 4 37 35 347 356 359 3 5 359 336 332 341 25 28 14 6 354 351 353 341 347 1 12 354 7 358
6 339 322 200 159 149 141 140 134 114 110 99 92 97 79 71 33 11 2 0 337 350 357 3 3 359 344 338 344 42 39 8 359 349 351 348 339 353 355 358 337 345 347
360 353 347 35 171 147 141 124 100 91 87 112 129 117 107 65 50 17 349 342 323 334 344 355 360 356 348 331 342 4 33 360 352 343 340 334 356 355 350 350 348 345 341
358 4 11 28 94 107 106 106 123 133 155 163 133 116 84 47 15 352 336 332 323 325 334 338 349 342 332 336 334 332 61 334 324 325 331 336 343 343 318 328 354 5 350
16 20 48 62 65 80 97 117 136 164 136 118 114 81 44 12 335 318 315 314 319 317 322 322 344 332 326 332 330 329 347 316 298 306 310 317 311 313 320 299 316 316 302
77 70 72 75 84 91 117 139 144 127 146 98 88 52 0 327 306 302 310 318 324 309 317 337 345 328 315 327 325 347 350 315 299 297 315 296 310 316 324 345 330 323 314
121 127 104 92 78 31 37 104 110 99 83 56 16 328 313 303 289 294 313 307 312 326 336 328 341 311 323 322 327 337 306 305 306 314 305 321 326 319 316 321 359 329 316
152 88 85 95 75 33 61 92 97 92 51 339 295 292 291 304 270 301 292 318 335 339 327 315 304 298 304 311 330 328 318 299 302 321 294 280 308 307 313 328 10 290 320
118 112 122 134 98 62 74 66 58 198 262 287 303 316 314 304 319 317 316 328 0 327 318 312 311 310 304 322 324 326 325 317 325 304 285 276 294 302 322 340 323 325 15
124 109 170 193 170 83 248 272 295 265 302 313 316 311 308 310 328 310 316 310 338 320 304 305 307 304 317 307 315 316 311 311 307 286 281 297 314 327 340 323 335 333 327
146 116 81 349 292 271 327 314 304 355 309 304 299 294 304 277 318 325 311 296 278 288 288 293 285 280 286 288 292 292 291 292 293 284 285 302 348 0 338 326 314 307 299
79 212 270 279 283 312 305 302 313 312 300 296 285 265 299 297 290 303 252 257 262 237 249 245 250 269 262 273 286 304 297 277 280 324 67 23 329 311 306 298 296 300 290
282 289 300 308 298 299 294 287 278 296 291 283 267 270 254 267 285 286 297 305 295 298 303 302 298 290 297 303 305 311 314 315 339 64 48 265 277 290 293 295 300 298 298